ZKLFW NZWN-NZWN

Flight info

Callsign ZKLFW
Flight time 0h 16m
Altitude 1500
Route VFR
Aircraft BE20/L-SBGRY/S

Departure

Time 2026-05-01 07:37
Airport Wellington International Airport (NZWN)

Arrival

Time 2026-05-01 07:54
Airport Wellington International Airport (NZWN)
Time Latitude Longitude Altitude Speed Heading
2026-05-01 07:23 -40.89987 174.98659 27 ft 0 kts 29°
2026-05-01 07:25 -40.89987 174.98660 27 ft 0 kts 29°
2026-05-01 07:25 -40.89986 174.98660 27 ft 0 kts 29°
2026-05-01 07:27 -40.89993 174.98698 27 ft 18 kts 154°
2026-05-01 07:28 -40.90090 174.98794 27 ft 21 kts 176°
2026-05-01 07:28 -40.90244 174.98793 27 ft 22 kts 180°
2026-05-01 07:28 -40.90401 174.98794 27 ft 23 kts 183°
2026-05-01 07:28 -40.90595 174.98792 27 ft 33 kts 180°
2026-05-01 07:29 -40.90839 174.98791 27 ft 36 kts 180°
2026-05-01 07:29 -40.91078 174.98793 27 ft 33 kts 179°
2026-05-01 07:29 -40.91125 174.98792 27 ft 7 kts 349°
2026-05-01 07:29 -40.91120 174.98791 27 ft 0 kts
2026-05-01 07:30 -40.91119 174.98791 27 ft 0 kts
2026-05-01 07:31 -40.89742 174.98809 476 ft 112 kts
2026-05-01 07:32 -40.88967 174.97314 1359 ft 129 kts 241°
2026-05-01 07:32 -40.89791 174.96695 1531 ft 158 kts 179°
2026-05-01 07:33 -40.91112 174.99079 1584 ft 195 kts 102°
2026-05-01 07:33 -40.91380 175.00811 1722 ft 188 kts 98°
2026-05-01 07:33 -40.91768 175.04129 2518 ft 191 kts 96°
2026-05-01 07:34 -40.91997 175.05921 2811 ft 205 kts 99°
2026-05-01 07:34 -40.92637 175.09666 3479 ft 219 kts 105°
2026-05-01 07:34 -40.93103 175.11511 4041 ft 211 kts 108°
2026-05-01 07:35 -40.93614 175.13347 4337 ft 220 kts 109°
2026-05-01 07:35 -40.94176 175.15280 4537 ft 228 kts 110°
2026-05-01 07:35 -40.94967 175.17092 4876 ft 228 kts 135°
2026-05-01 07:35 -40.96308 175.18199 5251 ft 230 kts 160°
2026-05-01 07:36 -40.97891 175.18393 5401 ft 233 kts 185°
2026-05-01 07:36 -40.99465 175.17669 5145 ft 242 kts 209°
2026-05-01 07:36 -41.00942 175.16595 4898 ft 246 kts 208°
2026-05-01 07:36 -41.02498 175.15744 4651 ft 233 kts 195°
2026-05-01 07:37 -41.05313 175.14326 3469 ft 213 kts 208°
2026-05-01 07:37 -41.06642 175.13344 3082 ft 225 kts 209°
2026-05-01 07:37 -41.08060 175.12344 2716 ft 238 kts 207°
2026-05-01 07:38 -41.09500 175.11330 2530 ft 234 kts 209°
2026-05-01 07:38 -41.10744 175.09932 2116 ft 237 kts 236°
2026-05-01 07:38 -41.12379 175.06168 1772 ft 238 kts 238°
2026-05-01 07:39 -41.13286 175.04327 1626 ft 235 kts 236°
2026-05-01 07:39 -41.14164 175.02535 1568 ft 229 kts 237°
2026-05-01 07:39 -41.15249 174.98769 1503 ft 207 kts 250°
2026-05-01 07:40 -41.15866 174.97317 1470 ft 158 kts 231°
2026-05-01 07:40 -41.16696 174.96569 1381 ft 138 kts 200°
2026-05-01 07:40 -41.17643 174.96114 1424 ft 143 kts 196°
2026-05-01 07:40 -41.18620 174.95753 1501 ft 145 kts 190°
2026-05-01 07:41 -41.19468 174.95242 1454 ft 130 kts 231°
2026-05-01 07:41 -41.19706 174.94146 1444 ft 130 kts 282°
2026-05-01 07:41 -41.18454 174.93711 1536 ft 116 kts 58°
2026-05-01 07:42 -41.18506 174.94776 1495 ft 127 kts 121°
2026-05-01 07:42 -41.19291 174.95270 1486 ft 132 kts 179°
2026-05-01 07:42 -41.20202 174.94926 1353 ft 156 kts 209°
2026-05-01 07:42 -41.21043 174.94058 1329 ft 146 kts 223°
2026-05-01 07:43 -41.21828 174.93051 1418 ft 171 kts 227°
2026-05-01 07:43 -41.22695 174.91868 1541 ft 190 kts 227°
2026-05-01 07:43 -41.24743 174.89299 1502 ft 215 kts 212°
2026-05-01 07:44 -41.27642 174.88010 1505 ft 226 kts 195°
2026-05-01 07:44 -41.30780 174.87290 1498 ft 231 kts 190°
2026-05-01 07:45 -41.32192 174.86824 1483 ft 190 kts 197°
2026-05-01 07:45 -41.33336 174.86390 1465 ft 154 kts 193°
2026-05-01 07:45 -41.34331 174.86113 1477 ft 144 kts 191°
2026-05-01 07:45 -41.35200 174.85498 1424 ft 144 kts 224°
2026-05-01 07:46 -41.35757 174.84430 1389 ft 141 kts 248°
2026-05-01 07:46 -41.36017 174.83121 1074 ft 149 kts 268°
2026-05-01 07:46 -41.35435 174.80870 524 ft 127 kts 329°
2026-05-01 07:47 -41.34691 174.80578 258 ft 109 kts 359°
2026-05-01 07:47 -41.33910 174.80607 121 ft 113 kts
2026-05-01 07:47 -41.33187 174.80653 9 ft 90 kts
2026-05-01 07:47 -41.32466 174.80704 132 ft 121 kts
2026-05-01 07:48 -41.30773 174.80837 1116 ft 129 kts
2026-05-01 07:48 -41.29842 174.80900 1477 ft 138 kts
2026-05-01 07:48 -41.28894 174.81269 1547 ft 141 kts 33°
2026-05-01 07:49 -41.28372 174.82226 1391 ft 138 kts 77°
2026-05-01 07:49 -41.29206 174.83921 1347 ft 150 kts 150°
2026-05-01 07:49 -41.30257 174.84406 1455 ft 160 kts 169°
2026-05-01 07:50 -41.31350 174.84404 1487 ft 155 kts 185°
2026-05-01 07:50 -41.33489 174.84183 1499 ft 154 kts 183°
2026-05-01 07:50 -41.34554 174.84060 1500 ft 153 kts 182°
2026-05-01 07:51 -41.35617 174.83965 1503 ft 153 kts 184°
2026-05-01 07:51 -41.36677 174.83847 1499 ft 153 kts 183°
2026-05-01 07:51 -41.37735 174.83692 1494 ft 154 kts 195°
2026-05-01 07:52 -41.38798 174.81546 1503 ft 146 kts 277°
2026-05-01 07:52 -41.38411 174.80454 1302 ft 119 kts 330°
2026-05-01 07:52 -41.37594 174.80355 897 ft 131 kts
2026-05-01 07:53 -41.35957 174.80453 620 ft 105 kts
2026-05-01 07:53 -41.35218 174.80526 465 ft 102 kts
2026-05-01 07:53 -41.34504 174.80566 285 ft 100 kts
2026-05-01 07:53 -41.33806 174.80615 122 ft 102 kts
2026-05-01 07:54 -41.32712 174.80687 9 ft 35 kts
2026-05-01 07:55 -41.32616 174.80563 8 ft 16 kts 187°
2026-05-01 07:55 -41.32643 174.80499 8 ft 1 kts
2026-05-01 07:56 -41.32642 174.80500 8 ft 0 kts